NORTHEAST SUFFOLK  -  Special Weather Statement Special Weather Statement        NORTHERN NASSAU  -  Special Weather Statement Special Weather Statement        NORTHWEST SUFFOLK  -  Special Weather Statement Special Weather Statement        SOUTHEAST SUFFOLK  -  Special Weather Statement Special Weather Statement        SOUTHERN NASSAU  -  Special Weather Statement Special Weather Statement        SOUTHWEST SUFFOLK  -  Special Weather Statement Special Weather Statement      

Active alerts

Northern Nassau
  Details for Northern Nassau Special Weather Statement
Southern Nassau
  Details for Southern Nassau Special Weather Statement
Northwest Suffolk
  Details for Northwest Suffolk Special Weather Statement
Southwest Suffolk
  Details for Southwest Suffolk Special Weather Statement
Northeast Suffolk
  Details for Northeast Suffolk Special Weather Statement
Southeast Suffolk
  Details for Southeast Suffolk Special Weather Statement


WXM80 ListenWXM80 Stop

You find our weather info also at:

UK Metoffice

WeatherCloud

Weather Underground

Northeastern Weather Network

AWEKAS

Citizen Weather Observer Program (CWOP)

HAMweather, WeatherForYou, PWS Weather


Weather Underground History page Text

Daily Summary for March 9, 2017 Units:  Metric    English   Both
« Previous Day
Next Day »
Daily Weekly Monthly Yearly Custom
  High: Low: Average:
Temperature: 15.1 °C 7.9 °C 11.8 °C
Dew Point: -0.3 °C -6.1 °C -2.8 °C
Humidity: 50 % 24 % 37 %
Wind Speed: 21.7 km/h 0 km/h 9.5 km/h
Wind Gust: 48.3 km/h - -
Wind:- - West
Pressure: 1014.8 hPa 1011.1 hPa -
Precipitation: 0 mm    
Historical Graphs
 
 
Tabular Data for March 9, 2017
Time Temperature Dew Point Pressure Wind Wind Speed Wind Gust Humidity Rainfall Rate (Hourly)
00:03 11.4 °C -2.8 °C 1011.1 hPa SW 9.5 km/h 18.5 km/h 37 % 0 mm
00:08 11.7 °C -3.3 °C 1011.1 hPa SW 10.5 km/h 22.2 km/h 35 % 0 mm
00:13 11.9 °C -3.5 °C 1011.1 hPa South 11.1 km/h 20.4 km/h 34 % 0 mm
00:18 12 °C -2.3 °C 1011.1 hPa SSW 8.2 km/h 16.7 km/h 37 % 0 mm
00:23 11.9 °C -2 °C 1011.1 hPa SW 13 km/h 24.1 km/h 38 % 0 mm
00:28 11.8 °C -2.4 °C 1011.1 hPa West 8.4 km/h 16.1 km/h 37 % 0 mm
00:33 12 °C -3.8 °C 1011.1 hPa WSW 16.6 km/h 33.3 km/h 33 % 0 mm
00:38 12.4 °C -3.4 °C 1011.1 hPa SW 18 km/h 31.5 km/h 33 % 0 mm
00:44 12.7 °C -3.2 °C 1011.1 hPa West 15 km/h 20.4 km/h 33 % 0 mm
00:49 12.8 °C -3.1 °C 1011.4 hPa WSW 16.3 km/h 33.8 km/h 33 % 0 mm
00:54 12.8 °C -3.1 °C 1011.1 hPa West 13.2 km/h 24.1 km/h 33 % 0 mm
00:59 12.8 °C -3.1 °C 1011.1 hPa West 20.1 km/h 37 km/h 33 % 0 mm
01:04 12.8 °C -3.1 °C 1011.4 hPa WSW 11.9 km/h 20.4 km/h 33 % 0 mm
01:09 12.7 °C -2.1 °C 1011.4 hPa South 6.9 km/h 11.1 km/h 36 % 0 mm
01:14 12.3 °C -1.6 °C 1011.4 hPa SW 8.2 km/h 11.1 km/h 38 % 0 mm
01:19 11.9 °C -1.3 °C 1011.7 hPa SSW 6.8 km/h 11.1 km/h 40 % 0 mm
01:24 11.6 °C -0.9 °C 1011.7 hPa SSW 4.5 km/h 7.4 km/h 42 % 0 mm
01:29 11.2 °C -1.3 °C 1011.7 hPa SSW 2.9 km/h 5.6 km/h 42 % 0 mm
01:34 10.8 °C -1.9 °C 1011.7 hPa WSW 4.3 km/h 18.5 km/h 41 % 0 mm
01:39 10.8 °C -3.3 °C 1011.7 hPa West 10.3 km/h 18.5 km/h 37 % 0 mm
01:45 11.2 °C -3.4 °C 1011.7 hPa West 17.5 km/h 37 km/h 36 % 0 mm
01:50 11.6 °C -3 °C 1011.7 hPa West 12.1 km/h 25.9 km/h 36 % 0 mm
01:55 11.7 °C -2.9 °C 1011.7 hPa West 14.8 km/h 22.2 km/h 36 % 0 mm
02:00 11.8 °C -3.2 °C 1011.7 hPa WSW 16.3 km/h 27.4 km/h 35 % 0 mm
02:05 12 °C -3 °C 1011.7 hPa West 9.3 km/h 35.2 km/h 35 % 0 mm
02:10 12.1 °C -3.3 °C 1011.7 hPa NW 19.5 km/h 31.5 km/h 34 % 0 mm
02:15 12.2 °C -3.3 °C 1012.1 hPa West 16.1 km/h 27.8 km/h 34 % 0 mm
02:20 12.1 °C -2.9 °C 1011.7 hPa WSW 15.4 km/h 22.2 km/h 35 % 0 mm
02:25 12.1 °C -2.9 °C 1011.7 hPa WSW 13.4 km/h 25.9 km/h 35 % 0 mm
02:30 11.9 °C -2.7 °C 1012.1 hPa WSW 7.6 km/h 18.5 km/h 36 % 0 mm
02:35 11.8 °C -2.8 °C 1011.7 hPa WSW 8.5 km/h 14.8 km/h 36 % 0 mm
02:40 11.7 °C -2.9 °C 1011.7 hPa WSW 13 km/h 18.5 km/h 36 % 0 mm
02:45 11.7 °C -3.7 °C 1011.7 hPa West 13.2 km/h 16.7 km/h 34 % 0 mm
02:51 11.7 °C -3.7 °C 1011.7 hPa NW 12.7 km/h 22.2 km/h 34 % 0 mm
02:56 11.8 °C -3.6 °C 1011.7 hPa West 12.7 km/h 18.5 km/h 34 % 0 mm
03:01 11.8 °C -3.2 °C 1011.7 hPa SW 9.8 km/h 18.5 km/h 35 % 0 mm
03:06 11.8 °C -3.2 °C 1011.7 hPa West 9.8 km/h 24.1 km/h 35 % 0 mm
03:11 11.8 °C -3.2 °C 1011.7 hPa WSW 6.4 km/h 22.2 km/h 35 % 0 mm
03:16 11.7 °C -3.3 °C 1011.4 hPa WSW 6.3 km/h 18.5 km/h 35 % 0 mm
03:21 11.7 °C -3.7 °C 1011.4 hPa SSW 9 km/h 16.1 km/h 34 % 0 mm
03:26 11.7 °C -3.7 °C 1011.4 hPa SW 11.7 km/h 20.4 km/h 34 % 0 mm
03:31 11.7 °C -4.1 °C 1011.4 hPa SW 13.2 km/h 17.7 km/h 33 % 0 mm
03:33 11.7 °C -4.1 °C 1011.4 hPa SSW 12.4 km/h 20.4 km/h 33 % 0 mm
03:37 11.7 °C -3.7 °C 1011.4 hPa SSW 9.3 km/h 24.1 km/h 34 % 0 mm
03:42 11.7 °C -3.7 °C 1011.4 hPa SW 13.5 km/h 24.1 km/h 34 % 0 mm
03:47 11.7 °C -3.7 °C 1011.7 hPa SW 8.9 km/h 16.7 km/h 34 % 0 mm
03:52 11.7 °C -3.7 °C 1011.7 hPa WSW 11.7 km/h 14.8 km/h 34 % 0 mm
03:57 11.7 °C -3.7 °C 1011.7 hPa SSW 10.9 km/h 18.5 km/h 34 % 0 mm
04:03 11.7 °C -3.3 °C 1011.7 hPa WSW 18.3 km/h 29.6 km/h 35 % 0 mm
04:08 11.7 °C -3.3 °C 1011.7 hPa SW 16.3 km/h 31.5 km/h 35 % 0 mm
04:13 11.7 °C -3.3 °C 1011.7 hPa WSW 10.8 km/h 25.7 km/h 35 % 0 mm
04:18 11.6 °C -3.3 °C 1011.7 hPa SW 6.9 km/h 25.9 km/h 35 % 0 mm
04:23 11.6 °C -3 °C 1011.7 hPa WSW 14.5 km/h 48.3 km/h 36 % 0 mm
04:28 11.5 °C -3.1 °C 1011.7 hPa WSW 14.5 km/h 32.2 km/h 36 % 0 mm
04:33 11.5 °C -3.1 °C 1012.1 hPa WSW 16.1 km/h 32.2 km/h 36 % 0 mm
04:38 11.5 °C -3.1 °C 1012.1 hPa WSW 9.7 km/h 32.2 km/h 36 % 0 mm
04:43 11.4 °C -3.1 °C 1012.1 hPa WSW 12.9 km/h 27.4 km/h 36 % 0 mm
04:48 11.4 °C -3.1 °C 1012.1 hPa WSW 11.3 km/h 25.7 km/h 36 % 0 mm
04:53 11.4 °C -3.5 °C 1012.1 hPa WSW 12.9 km/h 32.2 km/h 35 % 0 mm
04:58 11.4 °C -3.5 °C 1012.1 hPa WSW 16.6 km/h 33.3 km/h 35 % 0 mm
05:03 11.5 °C -3.4 °C 1012.1 hPa WSW 16.1 km/h 33.8 km/h 35 % 0 mm
05:08 11.5 °C -3.5 °C 1012.1 hPa WSW 14.5 km/h 33.8 km/h 35 % 0 mm
05:13 11.4 °C -3.5 °C 1012.1 hPa West 12.9 km/h 25.7 km/h 35 % 0 mm
05:18 11.4 °C -3.2 °C 1012.1 hPa West 12.7 km/h 18.5 km/h 36 % 0 mm
05:23 11.3 °C -3.3 °C 1012.1 hPa WSW 9.7 km/h 29 km/h 36 % 0 mm
05:28 11.2 °C -3.4 °C 1012.1 hPa West 10.9 km/h 29.6 km/h 36 % 0 mm
05:33 11.2 °C -3.4 °C 1012.1 hPa WSW 16.1 km/h 29 km/h 36 % 0 mm
05:38 11.2 °C -3.4 °C 1012.1 hPa South 7.9 km/h 20.4 km/h 36 % 0 mm
05:43 11.1 °C -3.1 °C 1012.1 hPa SW 18 km/h 29.6 km/h 37 % 0 mm
05:48 11 °C -3.2 °C 1012.1 hPa WNW 11.3 km/h 20.4 km/h 37 % 0 mm
05:49 11 °C -3.5 °C 1012.1 hPa SW 9.5 km/h 20.4 km/h 36 % 0 mm
05:54 11 °C -3.5 °C 1012.1 hPa SW 11.4 km/h 20.4 km/h 36 % 0 mm
05:59 11 °C -3.5 °C 1012.4 hPa West 16.6 km/h 18.5 km/h 36 % 0 mm
06:04 11 °C -3.5 °C 1012.4 hPa SW 9 km/h 22.2 km/h 36 % 0 mm
06:09 11.1 °C -3.4 °C 1012.4 hPa WSW 5.8 km/h 27.8 km/h 36 % 0 mm
06:14 11 °C -3.5 °C 1012.1 hPa WSW 11.1 km/h 27.8 km/h 36 % 0 mm
06:19 10.9 °C -3.6 °C 1012.1 hPa WNW 20.6 km/h 29.6 km/h 36 % 0 mm
06:24 10.9 °C -4 °C 1012.4 hPa WSW 18.8 km/h 35.2 km/h 35 % 0 mm
06:29 10.9 °C -3.9 °C 1012.4 hPa WSW 17.2 km/h 27.8 km/h 35 % 0 mm
06:34 10.9 °C -3.6 °C 1012.4 hPa West 12.9 km/h 31.5 km/h 36 % 0 mm
06:39 10.9 °C -3.9 °C 1012.4 hPa SW 15 km/h 24.1 km/h 35 % 0 mm
06:44 11 °C -3.9 °C 1012.4 hPa West 11.1 km/h 24.1 km/h 35 % 0 mm
06:50 11.1 °C -3.8 °C 1012.4 hPa SW 15.6 km/h 27.8 km/h 35 % 0 mm
06:55 11.1 °C -3.8 °C 1012.8 hPa WSW 15 km/h 29.6 km/h 35 % 0 mm
07:00 11.2 °C -3.7 °C 1012.4 hPa West 14.8 km/h 25.9 km/h 35 % 0 mm
07:05 11.3 °C -4.1 °C 1012.4 hPa WNW 18.3 km/h 30.6 km/h 34 % 0 mm
07:10 11.3 °C -4 °C 1012.8 hPa SW 10.5 km/h 18.5 km/h 34 % 0 mm
07:15 11.4 °C -3.9 °C 1012.8 hPa SW 11.6 km/h 22.2 km/h 34 % 0 mm
07:20 11.4 °C -3.9 °C 1012.8 hPa SW 21.7 km/h 24.1 km/h 34 % 0 mm
07:25 11.6 °C -3.8 °C 1012.8 hPa WSW 9 km/h 31.5 km/h 34 % 0 mm
07:30 11.6 °C -4.2 °C 1012.8 hPa WSW 9.2 km/h 20.4 km/h 33 % 0 mm
07:35 11.7 °C -4.1 °C 1012.8 hPa SW 12.7 km/h 25.9 km/h 33 % 0 mm
07:36 11.7 °C -4.1 °C 1012.8 hPa West 16.7 km/h 25.9 km/h 33 % 0 mm
07:41 11.8 °C -4 °C 1012.8 hPa SW 12.9 km/h 27.8 km/h 33 % 0 mm
07:46 11.8 °C -4.3 °C 1012.8 hPa SW 19 km/h 33.8 km/h 32 % 0 mm
07:51 11.9 °C -4.3 °C 1012.8 hPa WSW 18.5 km/h 31.5 km/h 32 % 0 mm
07:56 12 °C -3.8 °C 1012.8 hPa WNW 10.6 km/h 20.4 km/h 33 % 0 mm
08:01 12.1 °C -3.8 °C 1012.8 hPa WSW 16.7 km/h 27.8 km/h 33 % 0 mm
08:06 12.1 °C -4.1 °C 1012.8 hPa WSW 19 km/h 33.3 km/h 32 % 0 mm
08:11 12.1 °C -4.1 °C 1012.8 hPa WSW 16.7 km/h 35.4 km/h 32 % 0 mm
08:16 12.2 °C -3.6 °C 1013.1 hPa SW 11.4 km/h 27.4 km/h 33 % 0 mm
08:21 12.3 °C -3.9 °C 1013.4 hPa West 19.6 km/h 35.2 km/h 32 % 0 mm
08:26 12.3 °C -3.9 °C 1013.4 hPa SW 13.8 km/h 20.9 km/h 32 % 0 mm
08:32 12.3 °C -4.8 °C 1013.4 hPa NW 17.2 km/h 33.3 km/h 30 % 0 mm
08:37 12.4 °C -4.3 °C 1013.4 hPa WNW 10 km/h 29.6 km/h 31 % 0 mm
08:42 12.4 °C -4.3 °C 1013.1 hPa WSW 14.6 km/h 31.5 km/h 31 % 0 mm
08:47 12.4 °C -4.2 °C 1013.1 hPa West 18 km/h 31.5 km/h 31 % 0 mm
08:52 12.4 °C -4.2 °C 1013.1 hPa NW 19.6 km/h 38.9 km/h 31 % 0 mm
08:57 12.5 °C -4.2 °C 1013.1 hPa WSW 15.8 km/h 27.8 km/h 31 % 0 mm
09:02 12.6 °C -4.1 °C 1013.1 hPa WSW 13.4 km/h 25.9 km/h 31 % 0 mm
09:07 12.7 °C -5.4 °C 1013.4 hPa SW 21.1 km/h 33.8 km/h 28 % 0 mm
09:12 12.7 °C -5.3 °C 1013.4 hPa SW 14.2 km/h 33.3 km/h 28 % 0 mm
09:17 12.8 °C -5.3 °C 1013.4 hPa West 15.3 km/h 32.2 km/h 28 % 0 mm
09:22 12.9 °C -5.2 °C 1013.1 hPa West 7.4 km/h 18.5 km/h 28 % 0 mm
09:27 13.2 °C -5.4 °C 1013.1 hPa WNW 16.6 km/h 24.1 km/h 27 % 0 mm
09:32 13.3 °C -4.9 °C 1013.4 hPa WNW 16.4 km/h 31.5 km/h 28 % 0 mm
09:37 13.3 °C -5.3 °C 1013.1 hPa SW 14.3 km/h 24.1 km/h 27 % 0 mm
09:42 13.4 °C -5.3 °C 1013.1 hPa WNW 12.7 km/h 24.1 km/h 27 % 0 mm
09:48 13.3 °C -5.8 °C 1013.1 hPa West 13 km/h 27.4 km/h 26 % 0 mm
09:53 13.4 °C -4.8 °C 1013.1 hPa SW 10 km/h 18.5 km/h 28 % 0 mm
09:58 13.4 °C -5.7 °C 1013.1 hPa West 13.5 km/h 27.8 km/h 26 % 0 mm
10:03 13.5 °C -5.2 °C 1013.1 hPa West 14.8 km/h 25.9 km/h 27 % 0 mm
10:08 13.6 °C -5.1 °C 1012.8 hPa WSW 11.3 km/h 27.4 km/h 27 % 0 mm
10:13 13.7 °C -5.5 °C 1013.1 hPa WSW 14.5 km/h 32.2 km/h 26 % 0 mm
10:18 13.8 °C -5.9 °C 1013.1 hPa West 16.1 km/h 33.8 km/h 25 % 0 mm
10:23 13.9 °C -5.8 °C 1013.1 hPa West 14.5 km/h 29 km/h 25 % 0 mm
10:28 14.1 °C -5.7 °C 1013.1 hPa West 14.5 km/h 22.5 km/h 25 % 0 mm
10:33 14.2 °C -5.1 °C 1013.1 hPa West 14.5 km/h 33.8 km/h 26 % 0 mm
10:38 14.3 °C -5 °C 1013.1 hPa WNW 11.3 km/h 25.7 km/h 26 % 0 mm
10:40 14.3 °C -5.5 °C 1013.1 hPa West 18.2 km/h 33.3 km/h 25 % 0 mm
10:45 14.3 °C -6.1 °C 1013.1 hPa WNW 16.6 km/h 31.5 km/h 24 % 0 mm
10:50 14.3 °C -6.1 °C 1013.1 hPa NW 12.6 km/h 19.3 km/h 24 % 0 mm
10:55 14.3 °C -5.4 °C 1013.1 hPa West 9.5 km/h 25.9 km/h 25 % 0 mm
11:00 14.4 °C -5.4 °C 1012.8 hPa WSW 14 km/h 20.9 km/h 25 % 0 mm
11:05 14.4 °C -5.4 °C 1013.1 hPa WNW 16.3 km/h 27.8 km/h 25 % 0 mm
11:10 14.4 °C -5.4 °C 1013.1 hPa NNW 10.9 km/h 20.4 km/h 25 % 0 mm
11:15 14.6 °C -5.3 °C 1012.8 hPa WNW 11.4 km/h 18.5 km/h 25 % 0 mm
11:20 14.6 °C -4.7 °C 1013.1 hPa WSW 12.2 km/h 19.3 km/h 26 % 0 mm
11:25 14.7 °C -5.7 °C 1013.1 hPa WNW 13.7 km/h 24.1 km/h 24 % 0 mm
11:30 14.7 °C -5.7 °C 1013.4 hPa SW 16.1 km/h 37 km/h 24 % 0 mm
11:36 14.7 °C -5.2 °C 1013.1 hPa West 8.4 km/h 20.4 km/h 25 % 0 mm
11:41 14.8 °C -4.6 °C 1013.1 hPa West 10.8 km/h 24.1 km/h 26 % 0 mm
11:46 14.8 °C -4.5 °C 1013.1 hPa West 11.6 km/h 16.1 km/h 26 % 0 mm
11:51 14.8 °C -3.6 °C 1012.8 hPa NW 6 km/h 16.7 km/h 28 % 0 mm
11:56 14.7 °C -2.3 °C 1012.8 hPa NW 6 km/h 11.1 km/h 31 % 0 mm
12:01 14.7 °C -2.3 °C 1013.1 hPa NW 5.8 km/h 14.8 km/h 31 % 0 mm
12:06 14.7 °C -2.7 °C 1013.1 hPa WNW 9.3 km/h 22.2 km/h 30 % 0 mm
12:11 14.4 °C -2.9 °C 1012.8 hPa NNW 5.5 km/h 24.1 km/h 30 % 0 mm
12:16 14.3 °C -3.1 °C 1012.8 hPa NW 6.8 km/h 16.7 km/h 30 % 0 mm
12:21 14.3 °C -2.7 °C 1012.8 hPa NW 10.3 km/h 20.4 km/h 31 % 0 mm
12:26 14.2 °C -1.8 °C 1012.8 hPa WNW 11.3 km/h 14.8 km/h 33 % 0 mm
12:31 14.1 °C -1.9 °C 1012.4 hPa NNW 6.9 km/h 11.1 km/h 33 % 0 mm
12:36 14.2 °C -1.5 °C 1012.4 hPa NW 7.9 km/h 18.5 km/h 34 % 0 mm
12:41 14.2 °C -1.4 °C 1012.1 hPa WNW 5.6 km/h 18.5 km/h 34 % 0 mm
12:46 14.3 °C -2.2 °C 1012.4 hPa WNW 11.4 km/h 16.7 km/h 32 % 0 mm
12:51 14.4 °C -2.5 °C 1012.1 hPa WNW 7.6 km/h 18.5 km/h 31 % 0 mm
12:56 14.4 °C -2.1 °C 1012.1 hPa NNW 5.6 km/h 22.2 km/h 32 % 0 mm
13:01 14.5 °C -1.2 °C 1012.1 hPa WNW 4.3 km/h 14.5 km/h 34 % 0 mm
13:06 14.6 °C -2.4 °C 1012.1 hPa NW 9.2 km/h 14.8 km/h 31 % 0 mm
13:11 14.7 °C -2.3 °C 1012.1 hPa WNW 7.2 km/h 16.7 km/h 31 % 0 mm
13:16 14.8 °C -3.6 °C 1011.7 hPa WNW 6.3 km/h 18.5 km/h 28 % 0 mm
13:21 15.1 °C -1.9 °C 1011.7 hPa NW 8.7 km/h 17.7 km/h 31 % 0 mm
13:27 15 °C -2.4 °C 1011.7 hPa NW 11.4 km/h 16.1 km/h 30 % 0 mm
13:32 14.9 °C -2.1 °C 1012.1 hPa NW 8.2 km/h 11.1 km/h 31 % 0 mm
13:33 14.8 °C -2.2 °C 1012.4 hPa NNW 8.7 km/h 16.7 km/h 31 % 0 mm
13:34 14.8 °C -2.2 °C 1012.4 hPa WNW 9.3 km/h 16.7 km/h 31 % 0 mm
13:35 14.8 °C -2.6 °C 1012.1 hPa NNW 7.6 km/h 16.7 km/h 30 % 0 mm
13:38 14.8 °C -2.6 °C 1012.1 hPa WNW 9.2 km/h 13 km/h 30 % 0 mm
13:39 14.8 °C -3.1 °C 1012.1 hPa NW 10.9 km/h 18.5 km/h 29 % 0 mm
13:40 14.8 °C -2.6 °C 1012.1 hPa WNW 7.7 km/h 13 km/h 30 % 0 mm
13:42 14.8 °C -2.2 °C 1012.1 hPa West 9 km/h 14.8 km/h 31 % 0 mm
13:45 14.9 °C -1.7 °C 1012.1 hPa NW 6.9 km/h 13 km/h 32 % 0 mm
13:50 14.9 °C -2.6 °C 1012.1 hPa WNW 7.4 km/h 18.5 km/h 30 % 0 mm
13:55 14.9 °C -2.6 °C 1012.1 hPa NNW 14.3 km/h 27.8 km/h 30 % 0 mm
14:00 14.7 °C -2.3 °C 1012.1 hPa NNW 10.5 km/h 16.7 km/h 31 % 0 mm
14:05 14.4 °C -2.1 °C 1012.1 hPa NW 10.5 km/h 16.7 km/h 32 % 0 mm
14:10 14.2 °C -1.1 °C 1011.7 hPa WNW 4.8 km/h 13 km/h 35 % 0 mm
14:15 14.2 °C -1.5 °C 1011.7 hPa NNW 6.8 km/h 16.7 km/h 34 % 0 mm
14:20 14.2 °C -1.1 °C 1011.7 hPa NW 4 km/h 7.4 km/h 35 % 0 mm
14:25 14.3 °C -3.1 °C 1011.7 hPa WNW 10.5 km/h 17.7 km/h 30 % 0 mm
14:31 14.4 °C -2.6 °C 1012.1 hPa NW 11.1 km/h 14.8 km/h 31 % 0 mm
14:36 14.4 °C -2.1 °C 1012.1 hPa NW 7.2 km/h 13 km/h 32 % 0 mm
14:41 14.4 °C -1.7 °C 1011.7 hPa WNW 6.1 km/h 18.5 km/h 33 % 0 mm
14:46 14.3 °C -1.4 °C 1011.7 hPa NW 9.2 km/h 14.8 km/h 34 % 0 mm
14:51 14.1 °C -2 °C 1011.7 hPa NW 8.5 km/h 24.1 km/h 33 % 0 mm
14:56 13.8 °C -2.2 °C 1011.7 hPa NW 10.9 km/h 20.4 km/h 33 % 0 mm
15:01 13.7 °C -1.9 °C 1011.7 hPa WNW 6.1 km/h 9.3 km/h 34 % 0 mm
15:06 13.5 °C -1.7 °C 1011.7 hPa NW 9 km/h 16.7 km/h 35 % 0 mm
15:11 13.3 °C -1.4 °C 1011.7 hPa WNW 12.6 km/h 20.9 km/h 36 % 0 mm
15:16 13.2 °C -2.4 °C 1011.7 hPa WNW 7.1 km/h 13 km/h 34 % 0 mm
15:21 13.1 °C -1.3 °C 1011.7 hPa WNW 7.1 km/h 17.7 km/h 37 % 0 mm
15:26 12.9 °C -1.1 °C 1011.7 hPa WNW 4.5 km/h 9.3 km/h 38 % 0 mm
15:31 12.8 °C -1.2 °C 1011.7 hPa North 6.3 km/h 14.8 km/h 38 % 0 mm
15:37 12.6 °C -1.1 °C 1012.1 hPa NNW 4 km/h 13 km/h 39 % 0 mm
15:41 12.5 °C -1.1 °C 1012.1 hPa NW 7.9 km/h 13 km/h 39 % 0 mm
15:46 12.4 °C -1.2 °C 1012.1 hPa NNW 6.3 km/h 11.3 km/h 39 % 0 mm
15:51 12.3 °C -1.7 °C 1011.7 hPa NNW 5 km/h 13 km/h 38 % 0 mm
15:56 12.2 °C -1.3 °C 1011.7 hPa WNW 7.6 km/h 14.5 km/h 39 % 0 mm
16:01 12.2 °C -1.4 °C 1011.7 hPa NW 5.3 km/h 11.1 km/h 39 % 0 mm
16:06 12.1 °C -1.4 °C 1011.7 hPa NW 5.3 km/h 11.3 km/h 39 % 0 mm
16:11 12.1 °C -1.5 °C 1011.7 hPa NNW 6.6 km/h 13 km/h 39 % 0 mm
16:16 11.9 °C -1.3 °C 1011.7 hPa West 2.4 km/h 9.3 km/h 40 % 0 mm
16:21 11.8 °C -1 °C 1011.7 hPa West 7.9 km/h 12.9 km/h 41 % 0 mm
16:26 11.7 °C -1.4 °C 1011.7 hPa NW 4.7 km/h 6.4 km/h 40 % 0 mm
16:32 11.7 °C -1.2 °C 1011.7 hPa NW 4.7 km/h 9.3 km/h 41 % 0 mm
16:37 11.6 °C -1.6 °C 1011.7 hPa WNW 6.9 km/h 11.1 km/h 40 % 0 mm
16:42 11.5 °C -1.3 °C 1011.7 hPa NW 2.4 km/h 6.4 km/h 41 % 0 mm
16:47 11.5 °C -1.3 °C 1012.1 hPa WNW 6.6 km/h 14.8 km/h 41 % 0 mm
16:52 11.4 °C -1.1 °C 1012.1 hPa NW 4.3 km/h 5.6 km/h 42 % 0 mm
16:57 11.3 °C -0.8 °C 1012.1 hPa NW 5.3 km/h 14.8 km/h 43 % 0 mm
17:02 11.2 °C -0.3 °C 1012.1 hPa NW 2.7 km/h 7.4 km/h 45 % 0 mm
17:07 11.1 °C -0.8 °C 1012.1 hPa NNW 3.1 km/h 8 km/h 44 % 0 mm
17:12 10.9 °C -0.8 °C 1012.1 hPa WNW 6.1 km/h 11.1 km/h 44 % 0 mm
17:17 10.8 °C -0.7 °C 1012.4 hPa WNW 3.2 km/h 5.6 km/h 45 % 0 mm
17:22 10.7 °C -0.5 °C 1012.4 hPa NW 4 km/h 18.5 km/h 46 % 0 mm
17:27 10.6 °C -0.6 °C 1012.4 hPa NW 7.9 km/h 13 km/h 46 % 0 mm
17:33 10.4 °C -0.7 °C 1012.8 hPa WNW 11.4 km/h 18.5 km/h 46 % 0 mm
17:38 10.3 °C -0.6 °C 1012.8 hPa NW 3.9 km/h 13 km/h 47 % 0 mm
17:43 10.2 °C -0.3 °C 1012.8 hPa WNW 9 km/h 14.8 km/h 48 % 0 mm
17:48 10.1 °C -0.7 °C 1013.1 hPa WNW 8 km/h 14.8 km/h 47 % 0 mm
17:53 10.1 °C -0.4 °C 1013.1 hPa NW 4.8 km/h 14.5 km/h 48 % 0 mm
17:58 10.1 °C -1.1 °C 1013.1 hPa NW 5.6 km/h 13 km/h 46 % 0 mm
18:03 10.1 °C -1.3 °C 1013.1 hPa WNW 8.4 km/h 14.8 km/h 45 % 0 mm
18:08 10.1 °C -1.3 °C 1013.4 hPa WNW 4.2 km/h 9.7 km/h 45 % 0 mm
18:13 10.1 °C -1.3 °C 1013.1 hPa NW 5.8 km/h 9.3 km/h 45 % 0 mm
18:18 10.1 °C -1.7 °C 1013.1 hPa WNW 0.5 km/h 7.4 km/h 44 % 0 mm
18:23 10.1 °C -1.7 °C 1013.1 hPa WNW 3.5 km/h 9.7 km/h 44 % 0 mm
18:28 10 °C -2 °C 1013.1 hPa West 4.5 km/h 11.1 km/h 43 % 0 mm
18:33 9.9 °C -1.8 °C 1013.4 hPa WNW 3.7 km/h 9.3 km/h 44 % 0 mm
18:38 9.9 °C -1.8 °C 1013.4 hPa WNW 3.4 km/h 6.4 km/h 44 % 0 mm
18:44 9.8 °C -1.9 °C 1013.4 hPa West 4 km/h 14.8 km/h 44 % 0 mm
18:49 9.8 °C -1.9 °C 1013.4 hPa NW 5.6 km/h 7.4 km/h 44 % 0 mm
18:54 9.8 °C -1.6 °C 1013.8 hPa NW 5 km/h 8 km/h 45 % 0 mm
18:59 9.8 °C -1.3 °C 1013.8 hPa WNW 5 km/h 11.3 km/h 46 % 0 mm
19:04 9.7 °C -1.3 °C 1013.8 hPa West 5.5 km/h 13 km/h 46 % 0 mm
19:09 9.7 °C -1.4 °C 1013.8 hPa WNW 2.6 km/h 9.7 km/h 46 % 0 mm
19:14 9.6 °C -2.1 °C 1014.1 hPa NW 5.6 km/h 13 km/h 44 % 0 mm
19:19 9.6 °C -2.1 °C 1014.1 hPa West 8.4 km/h 18.5 km/h 44 % 0 mm
19:24 9.7 °C -2.3 °C 1014.1 hPa West 4.8 km/h 13 km/h 43 % 0 mm
19:29 9.7 °C -2.3 °C 1014.1 hPa WNW 4.8 km/h 11.3 km/h 43 % 0 mm
19:34 9.7 °C -2.3 °C 1014.1 hPa West 6 km/h 11.1 km/h 43 % 0 mm
19:39 9.7 °C -2.6 °C 1014.1 hPa WNW 4.8 km/h 6.4 km/h 42 % 0 mm
19:45 9.8 °C -2.2 °C 1014.4 hPa West 3.5 km/h 8 km/h 43 % 0 mm
19:50 9.8 °C -2.2 °C 1014.1 hPa NW 4.7 km/h 9.3 km/h 43 % 0 mm
19:55 9.8 °C -2.2 °C 1014.4 hPa WNW 1.6 km/h 5.6 km/h 43 % 0 mm
20:00 9.8 °C -1.9 °C 1014.1 hPa WNW 4.5 km/h 7.4 km/h 44 % 0 mm
20:05 9.7 °C -1.7 °C 1014.4 hPa WNW 4.5 km/h 7.4 km/h 45 % 0 mm
20:10 9.7 °C -2 °C 1014.4 hPa NW 2.7 km/h 8 km/h 44 % 0 mm
20:15 9.6 °C -2.1 °C 1014.4 hPa WNW 8.2 km/h 12.9 km/h 44 % 0 mm
20:20 9.6 °C -2.1 °C 1014.4 hPa NW 2.6 km/h 13 km/h 44 % 0 mm
20:25 9.6 °C -2.1 °C 1014.1 hPa NNW 1.6 km/h 7.4 km/h 44 % 0 mm
20:30 9.6 °C -1.8 °C 1014.1 hPa WNW 6 km/h 11.3 km/h 45 % 0 mm
20:35 9.5 °C -1.3 °C 1014.1 hPa NNW 5.6 km/h 13 km/h 47 % 0 mm
20:40 9.4 °C -1.1 °C 1014.1 hPa NNW 5.1 km/h 11.3 km/h 48 % 0 mm
20:45 9.3 °C -1.1 °C 1014.1 hPa NW 7.9 km/h 13 km/h 48 % 0 mm
20:50 9.3 °C -1.4 °C 1014.4 hPa WNW 6.3 km/h 11.3 km/h 47 % 0 mm
20:55 9.2 °C -1.2 °C 1014.4 hPa NW 6.3 km/h 13 km/h 48 % 0 mm
21:01 9.2 °C -1 °C 1014.4 hPa NW 4.5 km/h 9.7 km/h 49 % 0 mm
21:06 9.2 °C -0.7 °C 1014.4 hPa NW 5.3 km/h 9.3 km/h 50 % 0 mm
21:11 9.1 °C -1.1 °C 1014.4 hPa NW 8.9 km/h 11.1 km/h 49 % 0 mm
21:16 9 °C -1.4 °C 1014.4 hPa NW 11.3 km/h 14.8 km/h 48 % 0 mm
21:21 9 °C -1.4 °C 1014.4 hPa NNW 5.8 km/h 13 km/h 48 % 0 mm
21:26 9 °C -1.7 °C 1014.1 hPa WNW 10.9 km/h 18.5 km/h 47 % 0 mm
21:31 9.1 °C -1.7 °C 1014.4 hPa West 10.3 km/h 18.5 km/h 47 % 0 mm
21:36 9.1 °C -1.7 °C 1014.4 hPa NW 5.6 km/h 8 km/h 47 % 0 mm
21:41 9.1 °C -1.9 °C 1014.1 hPa NW 2.9 km/h 6.4 km/h 46 % 0 mm
21:46 9.1 °C -2.6 °C 1014.8 hPa NW 7.7 km/h 16.7 km/h 44 % 0 mm
21:51 9.1 °C -2.6 °C 1014.1 hPa WNW 5.5 km/h 14.8 km/h 44 % 0 mm
21:56 9.1 °C -2.5 °C 1014.1 hPa NNW 9.3 km/h 16.7 km/h 44 % 0 mm
22:02 9.1 °C -1.6 °C 1013.8 hPa WNW 5.6 km/h 13 km/h 47 % 0 mm
22:07 9.1 °C -1.7 °C 1014.4 hPa NW 7.4 km/h 14.8 km/h 47 % 0 mm
22:12 9 °C -1.7 °C 1014.1 hPa WNW 5.1 km/h 9.3 km/h 47 % 0 mm
22:17 8.9 °C -1.8 °C 1014.1 hPa NW 5 km/h 11.3 km/h 47 % 0 mm
22:22 8.8 °C -1.9 °C 1014.4 hPa NNW 8.7 km/h 16.7 km/h 47 % 0 mm
22:27 8.8 °C -1.6 °C 1014.1 hPa NNW 3.5 km/h 11.3 km/h 48 % 0 mm
22:32 8.8 °C -1.4 °C 1014.1 hPa WNW 6.4 km/h 14.8 km/h 49 % 0 mm
22:37 8.7 °C -1.2 °C 1013.8 hPa WNW 3.4 km/h 9.3 km/h 50 % 0 mm
22:42 8.6 °C -1.2 °C 1014.1 hPa NNW 2.7 km/h 6.4 km/h 50 % 0 mm
22:47 8.5 °C -1.9 °C 1014.1 hPa West 0.6 km/h 3.7 km/h 48 % 0 mm
22:52 8.4 °C -1.9 °C 1014.4 hPa Calm     48 % 0 mm
22:57 8.4 °C -1.7 °C 1014.4 hPa West 0.2 km/h 5.6 km/h 49 % 0 mm
23:03 8.4 °C -1.7 °C 1014.4 hPa Calm     49 % 0 mm
23:08 8.4 °C -1.7 °C 1014.8 hPa West 2.3 km/h 3.7 km/h 49 % 0 mm
23:13 8.3 °C -1.8 °C 1014.4 hPa West 0.2 km/h   49 % 0 mm
23:18 8.2 °C -2.4 °C 1014.4 hPa West 1.3 km/h 3.7 km/h 47 % 0 mm
23:23 8.2 °C -2.5 °C 1014.4 hPa WNW 0.3 km/h 3.7 km/h 47 % 0 mm
23:28 8.1 °C -2.6 °C 1014.8 hPa WNW 1.6 km/h 3.2 km/h 47 % 0 mm
23:33 8.1 °C -2.9 °C 1014.4 hPa Calm   4.8 km/h 46 % 0 mm
23:38 8 °C -2.9 °C 1014.4 hPa WNW 1.6 km/h 6.4 km/h 46 % 0 mm
23:43 7.9 °C -3.6 °C 1014.1 hPa NW 8 km/h 11.3 km/h 44 % 0 mm
23:48 8 °C -3.6 °C 1014.1 hPa NW 3.2 km/h 11.3 km/h 44 % 0 mm
23:53 8 °C -3.6 °C 1014.1 hPa NNW 4.8 km/h 11.3 km/h 44 % 0 mm
23:58 8.1 °C -3.5 °C 1014.1 hPa WNW 5.8 km/h 8 km/h 44 % 0 mm
Crab Meadow Weather
Compliments of Weather Underground - 3 mb

Script developed by  Jim McMurry - jmcmurry@mwt.net Adapted for the template by  Wim van der Kuil - Leuven-Template.eu

Weather Terms: Outlook - A hazardous weather outlook is issued daily to indicate that a hazardous weather or hydrologic event may occur in the next several days. The outlook will include information about potential severe thunderstorms , heavy rain or flooding, winter weather, extremes of heat or cold, etc., that may develop over the next 7 days with an emphasis on the first 24 hours of the forecast. It is intended to provide information to those who need considerable lead time to prepare for the event.